St. Charles, IL

2:36 AM CDT on April 26, 2017 (GMT -0500)
Saint Charles County Smartt

Weather History for KSET - March, 2013

Change the Weather History Date:

Sunday, March 10, 2013

  Actual Average (KSTL) Record (KSTL)
Temperature  
Mean Temperature 50 °F -  
Max Temperature 55 °F 53 °F 86 °F (1955)
Min Temperature 44 °F 32 °F 8 °F (1934)
Degree Days  
Heating Degree Days 16    
Moisture  
Dew Point 48 °F    
Average Humidity 90    
Maximum Humidity 100    
Minimum Humidity 72    
Precipitation  
Precipitation 1.30 in - - ()
Sea Level Pressure  
Sea Level Pressure 29.71 in    
Wind  
Wind Speed 7 mph (SW)    
Max Wind Speed 21 mph    
Max Gust Speed 26 mph    
Visibility 6 miles    
Events Rain , Thunderstorm    
Averages and records for this station are not official NWS values.
T = Trace of Precipitation, MM = Missing Value Source: NWS Daily Summary

Daily Weather History Graph

Daily Weather History Graph

Search for Another Location

Airport or City:

Trip Planner

Search our weather history database for the weather conditions in past years. The results will help you decide how hot, cold, wet, or windy it might be!

Date:

Astronomy

Mar. 10, 2013 Rise Set
Actual Time 7:20 AM CDT 7:04 PM CDT
Civil Twilight 6:53 AM CDT 7:30 PM CDT
Nautical Twilight 6:22 AM CDT 8:01 PM CDT
Astronomical Twilight 5:51 AM CDT 8:32 PM CDT
Moon 6:20 AM CDT (3/10) 6:12 PM CDT (3/10)
Length of Visible Light 12h 36m
Length of Day
11h 43m
Waning Crescent, 2% of the Moon is Illuminated
Mar 10
Waning Crescent
Mar 11
New
Mar 19
First Quarter
Mar 27
Full
Apr 2
Last Quarter

Hourly Weather History & Observations

Time (CDT) Temp. Windchill Dew Point Humidity Pressure Visibility Wind Dir Wind Speed Gust Speed Precip Events Conditions
12:54 AM 53.1 °F - 45.0 °F 74% 29.78 in 10.0 mi SSE 11.5 mph - 0.03 in Rain Light Rain
1:42 AM 53.6 °F - 44.6 °F 72% 29.78 in 10.0 mi Calm Calm - 0.00 in Thunderstorm Mostly Cloudy
1:54 AM 51.1 °F - 46.0 °F 83% 29.79 in 9.0 mi Calm Calm - 0.00 in Thunderstorm Overcast
3:16 AM 51.8 °F - 46.4 °F 82% 29.78 in 7.0 mi ESE 3.5 mph - 0.02 in Rain Light Rain
3:54 AM 51.1 °F - 46.0 °F 83% 29.77 in 5.0 mi SE 6.9 mph - 0.05 in Rain Rain
4:54 AM 51.1 °F - 46.0 °F 83% 29.75 in 5.0 mi SE 9.2 mph - 0.04 in Rain Light Rain
5:54 AM 48.9 °F - 46.0 °F 90% 29.72 in 8.0 mi East 9.2 mph - 0.02 in   Mostly Cloudy
7:54 AM 51.1 °F - 46.9 °F 86% 29.74 in 4.0 mi Calm Calm - 0.06 in Rain Light Rain
8:54 AM 54.0 °F - 51.1 °F 90% 29.74 in 6.0 mi South 8.1 mph - 0.02 in Rain Light Rain
9:54 AM 54.0 °F - 52.0 °F 93% 29.70 in 4.0 mi ESE 5.8 mph - 0.02 in Rain Light Rain
10:38 AM 55.4 °F - 51.8 °F 88% 29.71 in 2.0 mi SSE 8.1 mph - 0.03 in Rain Rain
10:47 AM 53.6 °F - 51.8 °F 94% 29.73 in 1.8 mi South 10.4 mph - 0.06 in Rain Rain
10:54 AM 54.0 °F - 53.1 °F 97% 29.74 in 1.2 mi SSE 11.5 mph - 0.13 in Rain Heavy Rain
11:25 AM 53.6 °F - 53.6 °F 100% 29.72 in 1.0 mi Calm Calm - 0.19 in Rain Heavy Rain
11:46 AM 53.6 °F - 51.8 °F 94% 29.71 in 0.8 mi North 4.6 mph - 0.29 in Rain Rain
11:54 AM 53.1 °F - 52.0 °F 96% 29.70 in 0.8 mi North 5.8 mph - 0.31 in Rain Rain
12:13 PM 53.6 °F - 51.8 °F 94% 29.68 in 1.0 mi North 4.6 mph - 0.04 in Rain Light Rain
12:40 PM 53.6 °F - 51.8 °F 94% 29.68 in 0.8 mi WNW 5.8 mph - 0.11 in Rain Rain
12:51 PM 53.6 °F - 51.8 °F 94% 29.67 in 1.0 mi WSW 3.5 mph - 0.14 in Rain Heavy Rain
12:54 PM 53.1 °F - 52.0 °F 96% 29.67 in 1.0 mi West 5.8 mph - 0.15 in Rain Rain
1:07 PM 51.8 °F - 51.8 °F 100% 29.68 in 2.0 mi WNW 13.8 mph 23.0 mph 0.02 in Rain Rain
1:12 PM 51.8 °F - 50.0 °F 94% 29.68 in 3.0 mi WNW 10.4 mph 23.0 mph 0.02 in Rain Light Rain
1:24 PM 51.8 °F - 50.0 °F 94% 29.69 in 10.0 mi West 11.5 mph - 0.02 in Rain Light Rain
1:54 PM 52.0 °F - 50.0 °F 93% 29.70 in 4.0 mi West 9.2 mph - 0.09 in Rain Rain
2:54 PM 52.0 °F - 50.0 °F 93% 29.68 in 4.0 mi WSW 3.5 mph - 0.14 in Rain Light Rain
3:54 PM 51.1 °F - 50.0 °F 96% 29.62 in 4.0 mi East 15.0 mph - 0.07 in Rain Rain
4:54 PM 52.0 °F - 50.0 °F 93% 29.66 in 10.0 mi SSE 6.9 mph - 0.03 in Rain Light Rain
5:54 PM 52.0 °F - 48.9 °F 89% 29.66 in 10.0 mi South 10.4 mph - 0.02 in   Overcast
6:54 PM 51.1 °F - 48.0 °F 89% 29.67 in 10.0 mi South 11.5 mph - N/A   Mostly Cloudy
7:54 PM 48.9 °F - 46.0 °F 90% 29.68 in 10.0 mi SSE 5.8 mph - N/A   Clear
9:13 PM 50.0 °F - 48.2 °F 94% 29.71 in 2.5 mi West 9.2 mph 17.3 mph 0.10 in Rain Heavy Rain
9:20 PM 48.2 °F - 46.4 °F 93% 29.71 in 3.0 mi West 8.1 mph - 0.11 in Rain Light Rain
9:54 PM 48.9 °F - 45.0 °F 86% 29.71 in 10.0 mi WSW 11.5 mph - 0.12 in   Overcast
10:54 PM 48.0 °F - 43.0 °F 83% 29.73 in 10.0 mi WSW 13.8 mph - N/A   Overcast
12:34 AM 44.6 °F 36.4 °F 39.2 °F 81% 29.73 in 10.0 mi West 20.7 mph 26.5 mph N/A   Overcast
12:52 AM 44.6 °F 38.1 °F 39.2 °F 81% 29.73 in 10.0 mi West 13.8 mph - N/A   Overcast
12:54 AM 44.1 °F 37.1 °F 39.0 °F 82% 29.73 in 10.0 mi West 15.0 mph - N/A   Overcast